Location: Grand Lay
(47.3253°N, 0.9468°E)
Time: 18:39:06
(UTC+00:00)

Gbstr 26 Del rocket - Pass Details

Date: 20 April 2026
Orbit: 490 x 1216 km, 51.8° (Epoch: 13 May)

Event Time Altitude Azimuth Distance (km) Brightness Sun altitude
Exits shadow 02:00:52 47° 3° (N) 667 3.5 -24.9°
Maximum altitude 02:01:00 47° 10° (N) 663 3.5 -24.9°
Drops below altitude 10° 02:04:36 10° 86° (E) 1,680 5.8 -24.5°
Sets 02:06:49 0° 93° (E) 2,576 6.7 -24.3°
